Regional Weather Roundup
Issued by NWS

Home | Current Version | Previous Version | Text Only | Print | Product List | Glossary On
Versions: 1 2 3 4 5 6 7 8 9 10 11 12 13 14 15 16 17 18 19 20 21 22 23 24 25 26 27 28 29 30 31 32 33 34 35 36 37 38 39 40 41 42 43 44 45 46 47 48 49 50
000
ASUS43 KDTX 301210
RWRMI
MICHIGAN HOURLY REGIONAL WEATHER ROUNDUP
NATIONAL WEATHER SERVICE DETROIT/PONTIAC MI
800 AM EDT SUN AUG 30 2015

NOTE: "FAIR" INDICATES FEW OR NO CLOUDS BELOW 12,000 FEET WITH NO
SIGNIFICANT WEATHER AND/OR OBSTRUCTION TO VISIBILITY.

MIZ047>049-052>055-059>063-066>070-074>076-081>083-301300-
SOUTHEAST LOWER MICHIGAN

CITY           SKY/WX    TMP DP  RH WIND       PRES   REMARKS
ADRIAN         CLOUDY    66  65  96 SW3       30.08R FOG
6HR MIN TEMP:  65; 6HR MAX TEMP:  67; 6HR PCP: TRACE;

ALMA           CLOUDY    64  64  99 E6        30.06S FOG
ANN ARBOR      CLOUDY    67  65  93 CALM      30.07S FOG
BAD AXE        CLOUDY    64  63  97 CALM      30.08R FOG
CARO           CLOUDY    64  64  98 CALM      30.07R FOG
DETROIT CITY   CLOUDY    69  66  90 CALM      30.07R
6HR MIN TEMP:  68; 6HR MAX TEMP:  69; 6HR PCP: TRACE;

DETROIT        FOG       70  68  94 S3        30.08R VSB 1
6HR MIN TEMP:  68; 6HR MAX TEMP:  69;

FLINT          CLOUDY    68  65  90 CALM      30.07R FOG
6HR MIN TEMP:  67; 6HR MAX TEMP:  69; 6HR PCP:  0.02;

GROSSE ILE     PTSUNNY   70  66  88 S6        30.06R
HILLSDALE      CLOUDY    67  67 100 CALM      30.08R FOG
6HR MIN TEMP:  65; 6HR MAX TEMP:  67;

HOWELL         CLOUDY    67  66  99 CALM      30.07R FOG
6HR MIN TEMP:  66; 6HR MAX TEMP:  67;


CITY           SKY/WX    TMP DP  RH WIND       PRES   REMARKS
JACKSON        CLOUDY    66  65  96 CALM      30.07R FOG
6HR MIN TEMP:  65; 6HR MAX TEMP:  67;

LAMBERTVILLE   CLOUDY    69  67  91 SE3       30.08R FOG
6HR MIN TEMP:  68; 6HR MAX TEMP:  69;

LANSING        CLOUDY    66  65  96 S5        30.07R FOG
6HR MIN TEMP:  64; 6HR MAX TEMP:  66; 6HR PCP: TRACE;

LAPEER         CLOUDY    65  65  99 CALM      30.08R FOG
6HR MIN TEMP:  64; 6HR MAX TEMP:  65; 6HR PCP:  0.01;

MASON          CLOUDY    66  63  89 S3        30.07R FOG
6HR MIN TEMP:  65; 6HR MAX TEMP:  67;

MONROE         CLOUDY    69  67  93 S6        30.07R FOG
6HR MIN TEMP:  66; 6HR MAX TEMP:  69; 6HR PCP:  0.01;

MT. CLEMENS    CLOUDY    67  66  99 CALM      30.06R FOG
6HR MIN TEMP:  65; 6HR MAX TEMP:  67;

PONTIAC        CLOUDY    66  66 100 SE3       30.07R FOG
6HR MIN TEMP:  65; 6HR MAX TEMP:  66; 6HR PCP:  0.02;

PORT HOPE        N/A     66  64  93 SE3       30.06R
6HR MIN TEMP:  65; 6HR MAX TEMP:  66;

PORT HURON     LGT RAIN  64  64 100 CALM      30.08R
TRI CITIES     CLOUDY    66  63  90 CALM      30.07R FOG
6HR MIN TEMP:  65; 6HR MAX TEMP:  66;

MIDLAND        CLOUDY    65  64  96 CALM      30.06R FOG
TROY           CLOUDY    67  66  96 CALM      30.09R FOG
SAGINAW HB     CLOUDY    64  63  94 CALM      30.06R FOG
$$
MIZ043>046-050>051-056>058-064>065-071>073-077>080-301300-
SOUTHWEST LOWER MICHIGAN

CITY           SKY/WX    TMP DP  RH WIND       PRES   REMARKS
BATTLE CREEK   CLOUDY    67  65  93 S6        30.07R FOG
6HR MIN TEMP:  65; 6HR MAX TEMP:  68;

BENTON HARBOR  CLOUDY    68  66  93 CALM      30.05R FOG
6HR MIN TEMP:  65; 6HR MAX TEMP:  69;

BIG RAPIDS     CLOUDY    63  62  97 CALM      30.07R FOG
6HR MIN TEMP:  62; 6HR MAX TEMP:  64;

COLDWATER      RAIN      67  67 100 CALM      30.08R
6HR MIN TEMP:  66; 6HR MAX TEMP:  68;

FREMONT        CLOUDY    64  64 100 N3        30.05R FOG
HOLLAND        CLOUDY    68  65  90 CALM      30.05R FOG
6HR MIN TEMP:  67; 6HR MAX TEMP:  68; 6HR PCP: TRACE;

GRAND RAPIDS   CLOUDY    66  65  96 NE3       30.05S FOG
6HR MIN TEMP:  65; 6HR MAX TEMP:  66; 6HR PCP:  0.01;

IONIA          FOG       65  65 100 CALM      30.05R VSB<1/4
6HR MIN TEMP:  64; 6HR MAX TEMP:  65;

KALAMAZOO      FOG       67  66  97 S3        30.06R VSB 1/4
6HR MIN TEMP:  66; 6HR MAX TEMP:  68;

LUDINGTON      CLOUDY    64  61  93 N3        30.07R FOG
6HR MIN TEMP:  61; 6HR MAX TEMP:  64;

MARSHALL       CLOUDY    66  65  97 CALM      30.06S FOG
6HR MIN TEMP:  62; 6HR MAX TEMP:  67;

MOUNT PLEASANT CLOUDY    65  63  93 NE3       30.05S FOG
6HR MIN TEMP:  65; 6HR MAX TEMP:  66;

MUSKEGON       CLOUDY    66  63  90 N3        30.05R FOG
6HR MIN TEMP:  66; 6HR MAX TEMP:  68; 6HR PCP: TRACE;

SOUTH HAVEN    FOG       66  65  95 CALM      30.05R VSB 1/2
$$
MIZ016>042-301300-
NORTHERN LOWER MICHIGAN

CITY           SKY/WX    TMP DP  RH WIND       PRES   REMARKS
ALPENA         CLOUDY    54  53  97 CALM      30.08R
6HR MIN TEMP:  51; 6HR MAX TEMP:  57;

BEAVER ISLAND  PTCLDY    62  62  99 SW3       30.06R FOG
6HR MIN TEMP:  54; 6HR MAX TEMP:  62;

BELLAIRE       FOG       57  56  96 CALM      30.08R VSB<1/4
6HR MIN TEMP:  55; 6HR MAX TEMP:  59;

CADILLAC       FOG       58  57  97 CALM      30.08R VSB 1/4
CHARLEVOIX     FOG       57  57 100 SE3       30.09S VSB<1/4
6HR MIN TEMP:  56; 6HR MAX TEMP:  59;

FRANKFORT      CLOUDY    57  57  98 CALM      30.07S FOG
GAYLORD        FOG       54  54 100 CALM      30.09R VSB 1/4
6HR MIN TEMP:  51; 6HR MAX TEMP:  57;

GRAYLING       FOG       52  52  99 CALM      30.10R VSB<1/4
6HR MIN TEMP:  50; 6HR MAX TEMP:  54;

HARBOR SPRINGS FOG       57  57  99 CALM      30.07R VSB<1/4
HOUGHTON LAKE  CLOUDY    56  56 100 CALM      30.09R FOG
6HR MIN TEMP:  52; 6HR MAX TEMP:  56;

MANISTEE       CLOUDY    59  55  88 CALM      30.08R
OSCODA         MOSUNNY   56  56  99 CALM      30.07R FOG
6HR MIN TEMP:  54; 6HR MAX TEMP:  56;

PELLSTON       FOG       52  52 100 CALM      30.07S VSB 1/2
6HR MIN TEMP:  49; 6HR MAX TEMP:  54;

ROGERS CITY    SUNNY     59  57  96 CALM      30.08R FOG
TRAVERSE CITY  FOG       58  56  93 CALM      30.06S VSB 1/4
6HR MIN TEMP:  57; 6HR MAX TEMP:  62;

$$
MIZ007>008-015-301300-
EASTERN UPPER MICHIGAN

CITY           SKY/WX    TMP DP  RH WIND       PRES   REMARKS
KINROSS        CLOUDY    61  61 100 S5        30.05R VSB<1/4
6HR MIN TEMP:  57; 6HR MAX TEMP:  61;

MACKINAC ISLAN CLOUDY    62  61  97 S6        30.05S FOG
6HR MIN TEMP:  60; 6HR MAX TEMP:  62;

NEWBERRY       FOG       60  60  99 SW7       30.03R VSB 1/2
6HR MIN TEMP:  58; 6HR MAX TEMP:  60;

S. S. MARIE    CLOUDY    60  59  96 CALM      30.04S FOG
6HR MIN TEMP:  59; 6HR MAX TEMP:  60;

MUNISING         N/A     63  59  87 S8        30.00S
6HR MIN TEMP:  62; 6HR MAX TEMP:  66;

$$
MIZ004>006-011>014-085-301300-
CENTRAL UPPER MICHIGAN

CITY           SKY/WX    TMP DP  RH WIND       PRES   REMARKS
MANISTIQUE     CLEAR     61  60  97 SW6       30.03S FOG
6HR MIN TEMP:  59; 6HR MAX TEMP:  62;

ESCANABA       CLEAR     55  55 100 W3        30.03S
6HR MIN TEMP:  55; 6HR MAX TEMP:  61;

MENOMINEE      CLEAR     54  52  94 CALM      30.05R
6HR MIN TEMP:  54; 6HR MAX TEMP:  61;

SAWYER-GWINN   FOG       57  57 100 S6        30.03R VSB 0
$$
MIZ001>003-009>011-084-301300-
WESTERN UPPER MICHIGAN

CITY           SKY/WX    TMP DP  RH WIND       PRES   REMARKS
IRON MOUNTAIN  CLOUDY    60  59  96 CALM      30.04R FOG
6HR MIN TEMP:  55; 6HR MAX TEMP:  60;

HOUGHTON       PTCLDY    60  59  96 SW5       29.97R FOG
6HR MIN TEMP:  57; 6HR MAX TEMP:  61;

IRONWOOD       PTCLDY    63  61  94 SW6       29.97S
6HR MIN TEMP:  63; 6HR MAX TEMP:  64;

$$

ABBREVIATIONS USED IN REMARKS
   TC - TEMPERATURE IN CELSIUS
  WCI - WIND CHILL INDEX
   HX - HEAT INDEX
  VSB - VISIBILITY



USA.gov is the U.S. government's official web portal to all federal, state and local government web resources and services.